Regional Weather Roundup
Issued by NWS

Home | Current Version | Previous Version | Text Only | Print | Product List | Glossary Off
Versions: 1 2 3 4 5 6 7 8 9 10 11 12 13 14 15 16 17 18 19 20 21 22 23 24 25 26 27 28 29 30 31 32 33 34 35 36 37 38 39 40 41 42 43 44 45 46 47 48 49 50

000
ASUS43 KIND 012209
RWRIN

WEATHER ROUNDUP FOR INDIANA
NATIONAL WEATHER SERVICE INDIANAPOLIS IN
600 PM EDT WED JUL 01 2015

NOTE: "FAIR" INDICATES FEW OR NO CLOUDS BELOW 12,000 FEET WITH NO
SIGNIFICANT WEATHER AND/OR OBSTRUCTIONS TO VISIBILITY.

* - STATION DOES NOT REPORT WEATHER SUCH AS PRECIPITATION OR FOG.

+ - STATION NOT QUALITY CONTROLLED BY THE NATIONAL WEATHER SERVICE.
    USE DATA WITH CAUTION...ESPECIALLY DEWPOINT AND RELATIVE
    HUMIDITY OBSERVATIONS.

INZ001>003-010>013-019-020-012300-
NORTHWEST INDIANA

CITY           SKY/WX    TMP DP  RH WIND       PRES   REMARKS
GARY /AIRPORT/ PTSUNNY   63  52  67 NE9       29.97F
KNOX *+        PTSUNNY   66  50  55 N8        29.95S
LA PORTE +     MOSUNNY   64  53  68 N7G16     29.97S
MICHIGAN CITY+ MOSUNNY   59  50  72 NE3       29.97F
MONTICELLO +   PTSUNNY   73  62  68 N9        29.92S
RENSSELAER +   PTSUNNY   68  61  77 N12       29.94S
VALPARAISO     MOSUNNY   65  50  58 N7        29.96S

$$

LMZ046-743>745-012300-
SOUTHERN LAKE MICHIGAN

STATION/POSITION TIME  TEMP    WIND        PRES    WAVE
                       AIR SEA DIR/SP/G            HT
                 (UTC) (F)     (DEG/KT/KT) (MB)    (FT)
BURNS HARBOR     2200   60      50/ 12/ 14 1015.2S
MICHIGAN CITY    2200   58      20/ 12/ 15   N/A
5NW MICH CITY    2200   59 65   60/ 10/ 14   N/A     3

$$

INZ004-005-014>016-021>024-012300-
NORTH CENTRAL INDIANA

CITY           SKY/WX    TMP DP  RH WIND       PRES   REMARKS
ELKHART        SUNNY     68  50  52 NW9       29.95R
GOSHEN         SUNNY     69  54  58 NW9       29.92S
LOGANSPORT +   MOSUNNY   72  55  56 N5G16     29.92F
PERU/GRISSOM   PTSUNNY   74  62  66 N5        29.91S
ROCHESTER +    PTSUNNY   72  59  64 NW8       29.94S
SOUTH BEND     MOSUNNY   64  52  64 NW10      29.95F
WARSAW +         N/A     70  55  60 NW10      29.93S

$$

INZ006>009-017-018-025>027-012300-
NORTHEAST INDIANA

CITY           SKY/WX    TMP DP  RH WIND       PRES   REMARKS
ANGOLA *+      MOSUNNY   73  66  78 W9        29.91S
AUBURN +       MOSUNNY   73  55  53 NW7       29.92S
FORT WAYNE     PTSUNNY   75  58  55 NW8       29.92S
HUNTINGTON +   MOSUNNY   73  58  58 NW3       29.92S

$$

INZ028-029-035-036-043>045-051>053-012300-
WEST CENTRAL INDIANA

CITY           SKY/WX    TMP DP  RH WIND       PRES   REMARKS
CRAWFORDSVL +  PTSUNNY   71  61  70 E3        29.91S
GREENCASTLE +  PTSUNNY   73  61  64 E5        29.90S
LAFAYETTE      CLOUDY    72  63  73 NE6       29.90S
TERRE HAUTE    RAIN      71  70  96 S8        29.88R FOG

$$

INZ030>032-037>040-046>048-054>057-064-065-012300-
CENTRAL INDIANA

CITY           SKY/WX    TMP DP  RH WIND       PRES   REMARKS
CP ATTERBURY + PTSUNNY   77  64  65 CALM      29.90S HAZE
FISHERS *+     CLOUDY    70  68  94 CALM      29.90F
FRANKFORT +    PTSUNNY   74  64  70 NW3       29.93S
GREENWOOD *+   PTSUNNY   75  59  57 E3        29.90F
INDIANAPOLIS   CLOUDY    75  60  59 CALM      29.88F
-EAGLE CREEK   PTSUNNY   75  61  61 N5        29.90S
KOKOMO *+      MOSUNNY   75  63  64 N5        29.90F
MARION +       MOSUNNY   74  60  61 N5        29.92F
MT COMFORT *+  MOSUNNY   73  57  56 CALM      29.91S
SHELBYVILLE    MOSUNNY   79  62  56 CALM      29.89F
ZIONSVILLE +   CLOUDY    74  61  63 CALM      29.92S

$$

INZ033-034-041-042-049-050-058-059-012300-
EAST CENTRAL INDIANA

CITY           SKY/WX    TMP DP  RH WIND       PRES   REMARKS
MUNCIE         CLOUDY    75  61  61 N7        29.91S

$$

INZ060-061-067>069-081>083-085>088-012300-
SOUTHWEST INDIANA

CITY           SKY/WX    TMP DP  RH WIND       PRES   REMARKS
EVANSVILLE     MOSUNNY   83  68  60 NE3       29.87S HAZE
HUNTINGBURG *+ MOSUNNY   79  66  65 W5        29.88F
WASHINGTON +   PTSUNNY   78  67  68 CALM      29.87S

$$

INZ062-063-066-070>080-084-089>092-012300-
SOUTH CENTRAL AND SOUTHEAST INDIANA

CITY           SKY/WX    TMP DP  RH WIND       PRES   REMARKS
BLOOMINGTON    MOSUNNY   76  67  73 SE3       29.89S
MADISON *+     MOSUNNY   79  61  53 CALM      29.91F
NORTH VERNON + MOSUNNY   79  63  57 CALM      29.90S
SEYMOUR +      CLOUDY    77  64  65 S5        29.89S

$$




USA.gov is the U.S. government's official web portal to all federal, state and local government web resources and services.